Location: Carson
(33.8314°N, 118.2820°W)
Time: 14:54:20
(UTC+00:00)

Cosmos 1862 - Visible Passes

Search period start: 20 April 2021 00:00
Search period end: 30 April 2021 00:00
Orbit: 536 x 557 km, 82.5° (Epoch: 19 April)

Date Brightness Start Highest point End Pass type
(mag) Time Alt. Az. Time Alt. Az. Time Alt. Az.
23 Apr 6.4 05:39:35 10° N 05:39:48 11° N 05:39:48 11° N visible
24 Apr 6.2 05:34:10 10° N 05:34:42 13° N 05:34:42 13° N visible
25 Apr 6.0 05:28:46 10° N 05:29:37 16° N 05:29:37 16° N visible
26 Apr 5.7 05:23:22 10° N 05:24:34 19° N 05:24:34 19° N visible
27 Apr 5.5 05:17:57 10° N 05:19:31 23° N 05:19:31 23° N visible
28 Apr 5.2 05:12:33 10° N 05:14:30 28° NNW 05:14:30 28° NNW visible
29 Apr 4.8 05:07:09 10° N 05:09:31 34° NNW 05:09:31 34° NNW visible
